Location: Jaite
(41.2884°N, 81.5737°W)
Time: 20:20:46
(UTC+00:00)

SL-4 R/B - Pass Details

Date: 18 January 2020
Orbit: 428 x 666 km, 51.6° (Epoch: 16 February)

Event Time Altitude Azimuth Distance (km) Brightness Sun altitude
Exits shadow 11:13:47 21° 348° (NNW) 1,057 3.2 -17.6°
Maximum altitude 11:15:00 26° 21° (NNE) 913 3.2 -17.3°
Drops below altitude 10° 11:17:58 10° 80° (E) 1,543 5.4 -16.8°
Sets 11:20:16 0° 94° (E) 2,394 7.0 -16.4°
